TRA6082 LFBE-EHRD

Flight info

Callsign TRA6082
Flight time 1h 21m
Altitude 36000
Route BUGUS A34 LMG DCT TUDRA DCT BOKNO UN858 VANAD UN874 ARSAF DCT EGOZE N874 VEKIN N873 FERDI Y18 DENUT
Aircraft B738/M-SDE2E3FGHIRWXY/LB1

Departure

Time 2026-04-23 04:07
Airport Bergerac Dordogne-Périgord airport (LFBE)

Arrival

Time 2026-04-23 05:29
Airport Rotterdam The Hague Airport (EHRD)
Time Latitude Longitude Altitude Speed Heading
2026-04-23 03:47 44.82277 0.51546 167 ft 0 kts 305°
2026-04-23 04:04 44.82310 0.51450 178 ft 23 kts 282°
2026-04-23 04:04 44.82323 0.51225 178 ft 16 kts 277°
2026-04-23 04:05 44.82333 0.51078 178 ft 15 kts 275°
2026-04-23 04:05 44.82341 0.50939 180 ft 14 kts 275°
2026-04-23 04:05 44.82348 0.50805 180 ft 13 kts 274°
2026-04-23 04:05 44.82358 0.50679 178 ft 13 kts 295°
2026-04-23 04:06 44.82441 0.50664 178 ft 13 kts
2026-04-23 04:06 44.82515 0.50709 178 ft 12 kts 71°
2026-04-23 04:06 44.82513 0.50766 179 ft 0 kts 97°
2026-04-23 04:06 44.82508 0.50824 180 ft 24 kts 96°
2026-04-23 04:07 44.82473 0.51503 179 ft 113 kts 94°
2026-04-23 04:07 44.82400 0.52927 392 ft 164 kts 94°
2026-04-23 04:07 44.82291 0.54595 1332 ft 173 kts 97°
2026-04-23 04:07 44.82200 0.56205 2543 ft 169 kts 97°
2026-04-23 04:08 44.82103 0.58003 2978 ft 200 kts 96°
2026-04-23 04:08 44.81990 0.60085 3220 ft 226 kts 96°
2026-04-23 04:08 44.81963 0.62369 3595 ft 247 kts 80°
2026-04-23 04:08 44.82751 0.64614 4086 ft 265 kts 55°
2026-04-23 04:09 44.83879 0.66694 4988 ft 268 kts 53°
2026-04-23 04:09 44.85036 0.68766 5936 ft 271 kts 52°
2026-04-23 04:09 44.86214 0.70873 6785 ft 276 kts 52°
2026-04-23 04:09 44.87410 0.73027 7601 ft 281 kts 52°
2026-04-23 04:10 44.88617 0.75213 8463 ft 285 kts 52°
2026-04-23 04:10 44.89840 0.77440 9312 ft 289 kts 52°
2026-04-23 04:10 44.91076 0.79697 10170 ft 292 kts 52°
2026-04-23 04:10 44.92341 0.82012 10686 ft 309 kts 52°
2026-04-23 04:11 44.93707 0.84519 10896 ft 334 kts 52°
2026-04-23 04:11 44.95151 0.87170 11428 ft 345 kts 52°
2026-04-23 04:11 44.96621 0.89873 12210 ft 349 kts 52°
2026-04-23 04:11 44.98108 0.92607 13009 ft 353 kts 51°
2026-04-23 04:12 44.99868 0.94949 13706 ft 356 kts 30°
2026-04-23 04:12 45.02155 0.96252 14445 ft 356 kts
2026-04-23 04:12 45.04614 0.96547 15244 ft 355 kts
2026-04-23 04:12 45.07089 0.96656 15984 ft 357 kts
2026-04-23 04:13 45.09587 0.96778 16692 ft 361 kts
2026-04-23 04:13 45.12101 0.96928 17409 ft 363 kts
2026-04-23 04:13 45.14639 0.97117 18130 ft 366 kts
2026-04-23 04:13 45.17193 0.97328 18768 ft 370 kts
2026-04-23 04:14 45.19773 0.97547 19363 ft 373 kts
2026-04-23 04:14 45.22372 0.97768 19968 ft 376 kts
2026-04-23 04:14 45.24991 0.97988 20570 ft 378 kts
2026-04-23 04:14 45.27633 0.98209 21145 ft 382 kts
2026-04-23 04:15 45.30295 0.98430 21720 ft 385 kts
2026-04-23 04:15 45.32978 0.98652 22289 ft 388 kts
2026-04-23 04:15 45.38411 0.99101 23373 ft 395 kts
2026-04-23 04:16 45.41164 0.99330 23873 ft 398 kts
2026-04-23 04:16 45.43936 0.99561 24349 ft 400 kts
2026-04-23 04:16 45.46719 0.99793 24835 ft 401 kts
2026-04-23 04:16 45.49513 1.00025 25306 ft 404 kts
2026-04-23 04:17 45.52324 1.00258 25755 ft 406 kts
2026-04-23 04:17 45.55153 1.00486 26201 ft 408 kts
2026-04-23 04:17 45.57994 1.00712 26648 ft 410 kts
2026-04-23 04:17 45.60847 1.00937 27064 ft 412 kts
2026-04-23 04:18 45.63717 1.01165 27475 ft 414 kts
2026-04-23 04:18 45.66601 1.01395 27902 ft 416 kts
2026-04-23 04:18 45.69499 1.01627 28306 ft 418 kts 360°
2026-04-23 04:18 45.72416 1.01861 28692 ft 421 kts 360°
2026-04-23 04:19 45.75346 1.02096 29070 ft 423 kts 360°
2026-04-23 04:19 45.78291 1.02332 29453 ft 425 kts 360°
2026-04-23 04:19 45.81243 1.02410 29814 ft 424 kts 354°
2026-04-23 04:19 45.84160 1.01884 30158 ft 423 kts 345°
2026-04-23 04:20 45.87024 1.00933 30527 ft 422 kts 343°
2026-04-23 04:20 45.89869 0.99942 30974 ft 419 kts 343°
2026-04-23 04:20 45.92697 0.98952 31422 ft 417 kts 343°
2026-04-23 04:20 45.95516 0.97973 31794 ft 417 kts 343°
2026-04-23 04:21 45.98338 0.97004 32156 ft 416 kts 343°
2026-04-23 04:21 46.01152 0.96046 32561 ft 415 kts 343°
2026-04-23 04:21 46.03952 0.95099 32987 ft 413 kts 343°
2026-04-23 04:21 46.06749 0.94155 33352 ft 412 kts 343°
2026-04-23 04:22 46.09502 0.93225 33714 ft 411 kts 343°
2026-04-23 04:22 46.12285 0.92285 34112 ft 410 kts 343°
2026-04-23 04:22 46.15054 0.91349 34446 ft 408 kts 343°
2026-04-23 04:22 46.17820 0.90413 34732 ft 408 kts 343°
2026-04-23 04:23 46.20582 0.89476 35026 ft 407 kts 342°
2026-04-23 04:23 46.23337 0.88541 35334 ft 406 kts 342°
2026-04-23 04:23 46.26086 0.87607 35613 ft 406 kts 342°
2026-04-23 04:23 46.28838 0.86671 35868 ft 406 kts 342°
2026-04-23 04:24 46.31582 0.85736 36146 ft 405 kts 342°
2026-04-23 04:24 46.37120 0.83845 36163 ft 410 kts 342°
2026-04-23 04:25 46.42657 0.81956 36151 ft 406 kts 342°
2026-04-23 04:25 46.48118 0.80087 36166 ft 402 kts 342°
2026-04-23 04:26 46.53561 0.78225 36166 ft 402 kts 343°
2026-04-23 04:26 46.59135 0.77101 36169 ft 405 kts 348°
2026-04-23 04:27 46.64743 0.76178 36175 ft 406 kts 348°
2026-04-23 04:27 46.70357 0.75230 36182 ft 407 kts 348°
2026-04-23 04:28 46.78804 0.73760 36181 ft 408 kts 348°
2026-04-23 04:28 46.84449 0.72769 36184 ft 409 kts 348°
2026-04-23 04:29 46.90111 0.71774 36181 ft 410 kts 348°
2026-04-23 04:29 46.95786 0.70774 36191 ft 411 kts 348°
2026-04-23 04:30 46.98625 0.70273 36085 ft 409 kts 349°
2026-04-23 04:30 47.01414 0.69784 36122 ft 400 kts 349°
2026-04-23 04:30 47.06919 0.69324 36189 ft 400 kts 358°
2026-04-23 04:31 47.12495 0.69937 36198 ft 403 kts 359°
2026-04-23 04:31 47.18060 0.70570 36207 ft 404 kts 359°
2026-04-23 04:32 47.23715 0.71179 36212 ft 406 kts 359°
2026-04-23 04:32 47.29352 0.71771 36211 ft 407 kts 359°
2026-04-23 04:33 47.34962 0.72358 36210 ft 407 kts 359°
2026-04-23 04:33 47.40611 0.72952 36212 ft 407 kts 359°
2026-04-23 04:34 47.46255 0.73547 36212 ft 406 kts 359°
2026-04-23 04:34 47.51865 0.74878 36205 ft 414 kts 12°
2026-04-23 04:35 47.57336 0.77597 36211 ft 415 kts 13°
2026-04-23 04:35 47.62799 0.80354 36218 ft 414 kts 13°
2026-04-23 04:36 47.68262 0.83065 36220 ft 414 kts 13°
2026-04-23 04:36 47.73722 0.85760 36229 ft 413 kts 13°
2026-04-23 04:37 47.79179 0.88457 36241 ft 413 kts 13°
2026-04-23 04:37 47.84634 0.91163 36238 ft 413 kts 13°
2026-04-23 04:38 47.89162 0.93443 36247 ft 413 kts 14°
2026-04-23 04:38 47.94610 0.96204 36252 ft 413 kts 14°
2026-04-23 04:39 48.00057 0.98968 36258 ft 414 kts 14°
2026-04-23 04:39 48.05508 1.01738 36255 ft 414 kts 14°
2026-04-23 04:40 48.10955 1.04511 36263 ft 414 kts 14°
2026-04-23 04:40 48.16404 1.07292 36270 ft 414 kts 14°
2026-04-23 04:41 48.21853 1.10078 36269 ft 414 kts 14°
2026-04-23 04:41 48.27268 1.12837 36279 ft 414 kts 14°
2026-04-23 04:42 48.32718 1.15614 36282 ft 414 kts 14°
2026-04-23 04:42 48.38171 1.18401 36281 ft 414 kts 14°
2026-04-23 04:43 48.43616 1.21192 36284 ft 413 kts 14°
2026-04-23 04:43 48.49055 1.23986 36288 ft 413 kts 14°
2026-04-23 04:44 48.54488 1.26782 36299 ft 412 kts 14°
2026-04-23 04:44 48.59921 1.29542 36299 ft 412 kts 14°
2026-04-23 04:45 48.65359 1.32272 36303 ft 411 kts 14°
2026-04-23 04:45 48.70790 1.35009 36304 ft 411 kts 14°
2026-04-23 04:46 48.76219 1.37758 36309 ft 411 kts 14°
2026-04-23 04:46 48.81640 1.40511 36314 ft 411 kts 14°
2026-04-23 04:47 48.87054 1.43266 36318 ft 410 kts 14°
2026-04-23 04:47 48.92461 1.46023 36320 ft 410 kts 14°
2026-04-23 04:48 48.97608 1.49853 36330 ft 417 kts 30°
2026-04-23 04:48 49.01922 1.55872 36335 ft 425 kts 43°
2026-04-23 04:49 49.05804 1.62616 36326 ft 426 kts 44°
2026-04-23 04:49 49.07779 1.66071 36516 ft 427 kts 43°
2026-04-23 04:49 49.09754 1.69502 36430 ft 434 kts 43°
2026-04-23 04:50 49.13779 1.76446 36353 ft 444 kts 43°
2026-04-23 04:50 49.17884 1.83525 36330 ft 445 kts 43°
2026-04-23 04:51 49.21984 1.90610 36322 ft 444 kts 43°
2026-04-23 04:51 49.26064 1.97679 36326 ft 442 kts 43°
2026-04-23 04:52 49.30116 2.04717 36343 ft 439 kts 43°
2026-04-23 04:52 49.34143 2.11728 36350 ft 437 kts 43°
2026-04-23 04:53 49.38144 2.18714 36352 ft 435 kts 43°
2026-04-23 04:53 49.42123 2.25684 36349 ft 433 kts 43°
2026-04-23 04:54 49.46080 2.32633 36351 ft 432 kts 43°
2026-04-23 04:54 49.50025 2.39579 36357 ft 431 kts 43°
2026-04-23 04:55 49.53969 2.46528 36357 ft 430 kts 41°
2026-04-23 04:55 49.58519 2.52214 36363 ft 418 kts 26°
2026-04-23 04:56 49.63477 2.56872 36358 ft 418 kts 26°
2026-04-23 04:56 49.68429 2.61607 36365 ft 419 kts 27°
2026-04-23 04:57 49.73365 2.66419 36362 ft 420 kts 27°
2026-04-23 04:57 49.78274 2.71245 36362 ft 413 kts 27°
2026-04-23 04:58 49.83078 2.75970 36367 ft 407 kts 27°
2026-04-23 04:58 49.87879 2.80653 36027 ft 408 kts 26°
2026-04-23 04:59 49.90253 2.82975 35756 ft 401 kts 26°
2026-04-23 04:59 49.92593 2.85273 35471 ft 394 kts 26°
2026-04-23 04:59 49.94883 2.87537 35173 ft 389 kts 26°
2026-04-23 04:59 49.97161 2.89789 34829 ft 386 kts 26°
2026-04-23 05:00 49.99413 2.92020 34472 ft 383 kts 25°
2026-04-23 05:00 50.01644 2.94228 34231 ft 376 kts 25°
2026-04-23 05:00 50.03839 2.96398 33880 ft 372 kts 25°
2026-04-23 05:00 50.06008 2.98537 33565 ft 367 kts 25°
2026-04-23 05:01 50.08160 3.00664 33182 ft 365 kts 25°
2026-04-23 05:01 50.10290 3.02772 32831 ft 362 kts 24°
2026-04-23 05:01 50.12407 3.04869 32473 ft 359 kts 24°
2026-04-23 05:01 50.14478 3.06924 32129 ft 356 kts 24°
2026-04-23 05:02 50.16560 3.08990 31794 ft 354 kts 24°
2026-04-23 05:02 50.18628 3.11046 31450 ft 351 kts 24°
2026-04-23 05:02 50.20682 3.13090 31108 ft 349 kts 25°
2026-04-23 05:02 50.22732 3.15099 30776 ft 345 kts 22°
2026-04-23 05:03 50.24856 3.16718 30515 ft 336 kts 17°
2026-04-23 05:03 50.26991 3.18190 30128 ft 334 kts 17°
2026-04-23 05:03 50.29109 3.19638 29790 ft 331 kts 17°
2026-04-23 05:03 50.31205 3.21079 29442 ft 327 kts 18°
2026-04-23 05:04 50.33283 3.22519 29088 ft 326 kts 19°
2026-04-23 05:04 50.35351 3.23960 28761 ft 324 kts 19°
2026-04-23 05:04 50.37415 3.25403 28406 ft 327 kts 20°
2026-04-23 05:04 50.39527 3.26880 28072 ft 339 kts 20°
2026-04-23 05:05 50.41711 3.28447 27479 ft 352 kts 23°
2026-04-23 05:05 50.43908 3.30174 27027 ft 352 kts 24°
2026-04-23 05:05 50.46091 3.31924 26597 ft 351 kts 25°
2026-04-23 05:05 50.48263 3.33649 26229 ft 349 kts 25°
2026-04-23 05:06 50.50427 3.35355 25873 ft 347 kts 25°
2026-04-23 05:06 50.52591 3.37008 25441 ft 346 kts 24°
2026-04-23 05:06 50.54795 3.38549 25008 ft 346 kts 23°
2026-04-23 05:06 50.57005 3.40045 24644 ft 345 kts 23°
2026-04-23 05:07 50.59204 3.41529 24282 ft 343 kts 23°
2026-04-23 05:07 50.61394 3.43013 23914 ft 342 kts 24°
2026-04-23 05:07 50.63573 3.44498 23505 ft 340 kts 24°
2026-04-23 05:07 50.65731 3.45976 23118 ft 337 kts 24°
2026-04-23 05:08 50.67871 3.47448 22782 ft 334 kts 24°
2026-04-23 05:08 50.69990 3.48909 22435 ft 331 kts 24°
2026-04-23 05:08 50.72091 3.50359 22097 ft 328 kts 25°
2026-04-23 05:08 50.74177 3.51801 21758 ft 326 kts 25°
2026-04-23 05:09 50.76245 3.53232 21416 ft 323 kts 25°
2026-04-23 05:09 50.78300 3.54658 21085 ft 321 kts 25°
2026-04-23 05:09 50.80334 3.56070 20752 ft 319 kts 25°
2026-04-23 05:09 50.82358 3.57474 20430 ft 317 kts 25°
2026-04-23 05:10 50.84367 3.58870 20102 ft 314 kts 26°
2026-04-23 05:10 50.86364 3.60258 19780 ft 313 kts 26°
2026-04-23 05:10 50.88323 3.61621 19450 ft 311 kts 26°
2026-04-23 05:10 50.90308 3.62978 19130 ft 311 kts 22°
2026-04-23 05:11 50.92409 3.63822 18796 ft 313 kts
2026-04-23 05:11 50.94586 3.64042 18445 ft 314 kts
2026-04-23 05:11 50.96764 3.64159 18071 ft 313 kts
2026-04-23 05:11 50.98933 3.64262 17733 ft 311 kts
2026-04-23 05:12 51.01085 3.64372 17408 ft 308 kts
2026-04-23 05:12 51.03221 3.64491 17098 ft 306 kts
2026-04-23 05:12 51.05340 3.64618 16771 ft 304 kts
2026-04-23 05:12 51.07446 3.64749 16459 ft 302 kts
2026-04-23 05:13 51.09539 3.64883 16150 ft 300 kts
2026-04-23 05:13 51.11619 3.65017 15842 ft 298 kts
2026-04-23 05:13 51.13689 3.65151 15534 ft 297 kts
2026-04-23 05:14 51.17800 3.65420 14931 ft 294 kts
2026-04-23 05:14 51.19841 3.65554 14639 ft 293 kts
2026-04-23 05:14 51.21875 3.65686 14334 ft 292 kts
2026-04-23 05:14 51.23837 3.66271 13985 ft 285 kts 26°
2026-04-23 05:15 51.25516 3.67862 13702 ft 279 kts 37°
2026-04-23 05:15 51.27087 3.69659 13383 ft 278 kts 38°
2026-04-23 05:15 51.28641 3.71473 13075 ft 276 kts 38°
2026-04-23 05:15 51.30186 3.73272 12790 ft 274 kts 38°
2026-04-23 05:16 51.31729 3.75059 12497 ft 273 kts 38°
2026-04-23 05:16 51.33268 3.76838 12199 ft 273 kts 38°
2026-04-23 05:16 51.34805 3.78608 11914 ft 272 kts 38°
2026-04-23 05:16 51.36341 3.80376 11604 ft 271 kts 38°
2026-04-23 05:17 51.37868 3.82132 11317 ft 270 kts 38°
2026-04-23 05:17 51.39386 3.83879 11040 ft 268 kts 38°
2026-04-23 05:17 51.40901 3.85621 10744 ft 268 kts 38°
2026-04-23 05:17 51.42411 3.87363 10512 ft 266 kts 38°
2026-04-23 05:18 51.43893 3.89074 10326 ft 262 kts 38°
2026-04-23 05:18 51.45374 3.90788 10022 ft 261 kts 38°
2026-04-23 05:18 51.46840 3.92488 9760 ft 260 kts 38°
2026-04-23 05:18 51.48302 3.94183 9454 ft 259 kts 38°
2026-04-23 05:19 51.49754 3.95869 9199 ft 257 kts 38°
2026-04-23 05:19 51.51207 3.97551 8910 ft 257 kts 38°
2026-04-23 05:19 51.52631 3.99206 8641 ft 255 kts 38°
2026-04-23 05:19 51.54064 4.00871 8370 ft 254 kts 38°
2026-04-23 05:20 51.55490 4.02530 8094 ft 252 kts 38°
2026-04-23 05:20 51.56909 4.04181 7843 ft 252 kts 38°
2026-04-23 05:20 51.58330 4.05841 7569 ft 253 kts 38°
2026-04-23 05:20 51.59752 4.07499 7293 ft 252 kts 38°
2026-04-23 05:21 51.61173 4.09161 7022 ft 252 kts 38°
2026-04-23 05:21 51.62591 4.10817 6738 ft 251 kts 39°
2026-04-23 05:21 51.64001 4.12463 6453 ft 250 kts 38°
2026-04-23 05:21 51.65405 4.14106 6180 ft 249 kts 38°
2026-04-23 05:22 51.66801 4.15741 5900 ft 247 kts 38°
2026-04-23 05:22 51.68188 4.17365 5599 ft 247 kts 38°
2026-04-23 05:22 51.69614 4.19039 5050 ft 257 kts 38°
2026-04-23 05:22 51.71066 4.20743 4681 ft 258 kts 38°
2026-04-23 05:23 51.72515 4.22444 4427 ft 256 kts 38°
2026-04-23 05:23 51.74049 4.23782 4290 ft 251 kts 17°
2026-04-23 05:23 51.75766 4.23981 4193 ft 246 kts 357°
2026-04-23 05:23 51.77436 4.23575 4090 ft 239 kts 352°
2026-04-23 05:24 51.79051 4.23092 3983 ft 232 kts 352°
2026-04-23 05:24 51.80614 4.22637 3852 ft 226 kts 353°
2026-04-23 05:24 51.82165 4.22202 3616 ft 226 kts 353°
2026-04-23 05:24 51.83712 4.21776 3378 ft 225 kts 353°
2026-04-23 05:25 51.85252 4.21358 3135 ft 224 kts 355°
2026-04-23 05:25 51.86746 4.21658 2888 ft 216 kts 32°
2026-04-23 05:25 51.87691 4.23390 2713 ft 204 kts 66°
2026-04-23 05:25 51.88081 4.24778 2569 ft 199 kts 63°
2026-04-23 05:26 51.88771 4.26645 2352 ft 193 kts 58°
2026-04-23 05:26 51.89491 4.28445 2108 ft 187 kts 58°
2026-04-23 05:26 51.90176 4.30163 1966 ft 177 kts 58°
2026-04-23 05:26 51.90835 4.31824 1740 ft 173 kts 58°
2026-04-23 05:27 51.91466 4.33410 1519 ft 162 kts 58°
2026-04-23 05:27 51.92053 4.34890 1287 ft 151 kts 59°
2026-04-23 05:27 51.92607 4.36283 1085 ft 144 kts 59°
2026-04-23 05:27 51.93137 4.37616 910 ft 141 kts 59°
2026-04-23 05:28 51.93671 4.38960 652 ft 141 kts 57°
2026-04-23 05:28 51.94188 4.40276 510 ft 138 kts 57°
2026-04-23 05:28 51.94722 4.41593 303 ft 141 kts 56°
2026-04-23 05:28 51.95261 4.42943 36 ft 142 kts 56°
2026-04-23 05:29 51.95740 4.44148 0 ft 88 kts 57°
2026-04-23 05:29 51.95910 4.44608 -2 ft 16 kts 84°
2026-04-23 05:29 51.95849 4.44742 0 ft 17 kts 148°
2026-04-23 05:29 51.95750 4.44668 0 ft 18 kts 236°
2026-04-23 05:30 51.95682 4.44501 0 ft 17 kts 237°
2026-04-23 05:30 51.95617 4.44335 0 ft 20 kts 237°
2026-04-23 05:30 51.95527 4.44113 0 ft 24 kts 237°
2026-04-23 05:30 51.95440 4.43893 0 ft 23 kts 237°
2026-04-23 05:31 51.95356 4.43681 0 ft 22 kts 237°
2026-04-23 05:31 51.95279 4.43517 0 ft 17 kts 207°
2026-04-23 05:31 51.95175 4.43520 0 ft 16 kts 230°
2026-04-23 05:31 51.95135 4.43401 0 ft 10 kts 272°
2026-04-23 05:32 51.95163 4.43350 0 ft 0 kts 329°